User: anonymous   Login
Location: Vigo di Fassa
(46.4167°N, 11.6667°E)
Time: 17:43:53
(UTC+00:00)
Language:

SL-8 Rocket - Orbit

View from above orbital plane
View from above orbital plane
View from above satellite
View from above satellite

Ground track
Ground track

The orbit data is extracted from the following two-line orbital elements,

1 21088U 91006B   21129.55468277  .00000029  00000-0  13993-4 0  9994
2 21088  82.9460  42.7704 0021407 300.3871 232.2560 13.77163145521365
Epoch (UTC): 09 May 2021 13:18:44
Eccentricity: 0.0021407
inclination: 82.9460°
perigee height: 958 km
apogee height: 990 km
right ascension of ascending node: 42.7704°
argument of perigee: 300.3871°
revolutions per day: 13.77163145
mean anomaly at epoch: 232.2560°
orbit number at epoch: 52136

The dashed part of the orbit path shows where the satellite is in the earth's shadow,  

DLR